Regional Weather Roundup
Issued by NWS

Home | Current Version | Previous Version | Text Only | Print | Product List | Glossary Off
Versions: 1 2 3 4 5 6 7 8 9 10 11 12 13 14 15 16 17 18 19 20 21 22 23 24 25 26 27

000
ASUS45 KCYS 200210
RWRWY

WYOMING REGIONAL WEATHER ROUNDUP
NATIONAL WEATHER SERVICE CHEYENNE WY
700 PM MST THU JAN 19 2017

NOTE:  "FAIR" INDICATES FEW OR NO CLOUDS BELOW 12,000 FEET
WITH NO SIGNIFICANT WEATHER AND/OR OBSTRUCTIONS TO VISIBILITY.

WYZ001-200300-
YELLOWSTONE NATIONAL PARK

CITY           SKY/WX    TMP DP  RH WIND       PRES   REMARKS
LK YELLOWSTONE   N/A     24  21  88 CALM      29.63F
W YELLOWSTONE  NOT AVBL

$$
WYZ002>013-054>058-071-098>099-200300-
NORTHERN WYOMING

CITY           SKY/WX    TMP DP  RH WIND       PRES   REMARKS
JACKSON        CLOUDY    27  27 100 S7        29.64F WCI  19
CODY           FAIR      36  22  56 N5        29.53  WCI  32
GREYBULL       CLOUDY    23  18  81 SW5       29.54R WCI  17
WORLAND        MOCLDY    27  23  85 CALM      29.53S
SHERIDAN       FAIR      24  16  71 MISG      29.51R
BUFFALO        FAIR      37  22  54 NW8       29.51S WCI  31
GILLETTE       FAIR      36  25  64 W6        29.49S WCI  31
HULETT         FAIR      37  25  60 CALM      29.49S
NEWCASTLE      FAIR      32  23  69 CALM      29.52S

$$
WYZ014>020-022>026-101>103-200300-
CENTRAL WYOMING

CITY           SKY/WX    TMP DP  RH WIND       PRES   REMARKS
BIG PINEY      FLURRIES  13  11  92 NW3       29.67S
PINEDALE       FLURRIES  14  14 100 NE6       29.67R WCI   5
DUBOIS         NOT AVBL
LANDER         MOCLDY    22  15  75 NW6       29.54F WCI  14
RIVERTON       FAIR      20  13  74 S6        29.56F WCI  12
CASPER         FAIR      31  23  72 SW12      29.57S WCI  22
DOUGLAS        FAIR      37  22  54 W14       29.54S WCI  28

$$
WYZ021-027>030-104>119-200300-
SOUTHERN WYOMING

CITY           SKY/WX    TMP DP  RH WIND       PRES   REMARKS
EVANSTON       LGT SNOW  27  24  89 SW6       29.67F FOG     WCI  20
ROCK SPRINGS   LGT SNOW  18  14  84 CALM      29.67S FOG
RAWLINS        CLOUDY    29  22  75 SW18      29.64  WCI  16
LARAMIE        FAIR      18  15  88 NE7       29.59S WCI   9
CHEYENNE       FAIR      36  18  48 VRB6      29.55S WCI  31
TORRINGTON     FAIR      41  21  44 NW12      29.51R

$$




USA.gov is the U.S. government's official web portal to all federal, state and local government web resources and services.